Flag for Germany Weather past 2 weeks in Neubrandenburg, Mecklenburg-Western Pomerania, Germany

Now
39 °F

Overcast.


Feels Like: 34 °F
Forecast: 29 / 38 °F
Wind: 7 mph from Northwest

Location: Greifswald

Current Time: Jan 27, 2015 at 2:38:29 AM

Latest Report: Jan 27, 2015 at 2:00 AM


Visibility: 16 mi

Pressure: 29.76 "Hg

Humidity: 91%

Dew point: 37 °F

Location of NeubrandenburgLocation

Historic Weather in Neubrandenburg — Graph

°F

Neubrandenburg temperature yesterday

Maximum temperature yesterday: 38 °F (at 3:00 PM)
Minimum temperature yesterday: 35 °F (at 12:00 AM)
Average temperature yesterday: 36 °F

Past Weeks' High & Low Weather Summary

 TemperatureHumidityPressure
High49 °F (Jan 13, 1:00 PM)100% (Jan 21, 12:00 AM)30.31 "Hg (Jan 21, 12:00 AM)
Low26 °F (Jan 23, 3:00 AM)64% (Jan 16, 1:00 PM)29.44 "Hg (Jan 15, 8:00 PM)
Average36 °F89%29.92 "Hg
* Reported Jan 12 1:00 AM — Jan 27 1:00 AM, Neubrandenburg, Weather by CustomWeather, © 2014

Note: Actual official high and low records may vary slightly from our data, if they occured in-between our weather recording intervals... More about our weather records

Advertising

Neubrandenburg weather history for previous 24 hours

 ConditionsComfort  
Time TempWeatherWind HumidityBarometerVisibility
1:00 AM
Jan 27
39 °FLight rain. Overcast.6 mph95%29.75 "Hg6 mi
12:00 AM39 °FLight rain. Overcast.6 mph94%29.75 "Hg7 mi
11:00 PM
Jan 26
38 °FLight rain. Low clouds.3 mph97%29.75 "Hg6 mi
9:00 PM37 °FLight rain. Low clouds.5 mph95%29.79 "Hg7 mi
8:00 PM36 °FDrizzle. Low clouds.6 mph96%29.81 "Hg2 mi
7:00 PM36 °FLight rain. Overcast.6 mph95%29.84 "Hg2 mi
6:00 PM37 °FLight rain. Low clouds.6 mph94%29.87 "Hg3 mi
5:00 PM37 °FLight rain. Low clouds.6 mph94%29.89 "Hg2 mi
3:00 PM38 °FOvercast.6 mph86%29.95 "Hg9 mi
2:00 PM38 °FOvercast.5 mph87%29.98 "Hg7 mi
1:00 PM37 °FLow clouds.7 mph89%30.03 "Hg6 mi
12:00 PM36 °FLow clouds.6 mph92%30.07 "Hg6 mi
11:00 AM36 °FLow clouds.6 mph94%30.11 "Hg6 mi
10:00 AM36 °FLow clouds.6 mph94%30.14 "Hg7 mi
9:00 AM35 °FLow clouds.5 mph95%30.16 "Hg6 mi
8:00 AM35 °FLow clouds.3 mph95%30.17 "Hg7 mi
7:00 AM35 °FLow clouds.3 mph96%30.19 "Hg6 mi
6:00 AM35 °FLow clouds.2 mph96%30.19 "Hg5 mi
5:00 AM35 °FLow clouds.3 mph97%30.20 "Hg4 mi
3:00 AM35 °FLow clouds.3 mph98%30.24 "Hg3 mi
2:00 AM35 °FLow clouds.2 mph97%30.25 "Hg5 mi
Weather by CustomWeather, © 2014

See weather overviewHow to use our weather pages